Terminal Aerodrome Forecast
Issued by NWS Honolulu, HI

Home | Current Version | Previous Version | Text Only | Print | Product List | Glossary On
Versions: 1 2 3 4 5 6 7 8 9 10 11 12 13 14 15 16 17 18 19 20 21 22 23 24 25 26 27 28 29 30 31 32 33 34 35 36 37 38 39 40 41 42 43 44 45 46 47 48 49 50
000
FTPA31 PHFO 312000 AAA
TAFHNL
TAF AMD
PHNL 312055Z 3121/0124 06008KT P6SM VCSH FEW025 SCT050
     FM010000 04012G16KT P6SM VCSH SCT030 BKN050
     FM010600 VRB04KT P6SM SCT050
     FM012000 35012G16KT P6SM VCSH SCT025 BKN040=

USA.gov is the U.S. government's official web portal to all federal, state and local government web resources and services.